Weather reports worldwide

Advertisment
Cottbus, Germany (10496): temperature & dewpoint: 13.01.2021 06:00:00 - 19.01.2021 06:00:00 (CET)Cottbus, Germany (10496): temperature 5cm & temperature -5cm: 13.01.2021 06:00:00 - 19.01.2021 06:00:00 (CET)Cottbus, Germany (10496): temperature -20cm & temperature -100cm: 13.01.2021 06:00:00 - 19.01.2021 06:00:00 (CET)Cottbus, Germany (10496): wind speed & gusts: 13.01.2021 06:00:00 - 19.01.2021 06:00:00 (CET)Cottbus, Germany (10496): wind direction: 13.01.2021 06:00:00 - 19.01.2021 06:00:00 (CET)Cottbus, Germany (10496): reduced air pressure: 13.01.2021 06:00:00 - 19.01.2021 06:00:00 (CET)Cottbus, Germany (10496): visibility: 13.01.2021 06:00:00 - 19.01.2021 06:00:00 (CET)Cottbus, Germany (10496): sunshine duration: 13.01.2021 06:00:00 - 19.01.2021 06:00:00 (CET)Cottbus, Germany (10496): precipitation: 13.01.2021 06:00:00 - 19.01.2021 06:00:00 (CET)
Date & Time tt [°C] td [°C] tt 5cm [°C] tt -5cm [°C] tt -20cm [°C] tt -100cm [°C] ff [km/h] ff [kn] fx [km/h] fx [kn] dd ppp [hPa] vv [km] sd [min] rr [mm]
19.01.2021 06:00:00 2,1 1,1 0,5 0,1 0,8 3,2 10 5 22 12 SW 1015,2 26 0 0,0
19.01.2021 05:00:00 2,1 1,1 0,6 0,1 0,8 3,2 13 7 25 13 WSW 1015,5 27 0 0,0
19.01.2021 04:00:00 2,0 1,2 0,5 0,1 0,8 3,2 15 8 27 15 WSW 1015,8 23 0 0,0
19.01.2021 03:00:00 2,0 1,3 0,5 0,1 0,8 3,2 16 8 30 16 WSW 1016,1 22 0 0,0
19.01.2021 02:00:00 1,8 1,4 0,3 0,1 0,8 3,2 16 9 27 15 WSW 1016,3 13 0 0,2
19.01.2021 01:00:00 1,7 1,2 0,2 0,1 0,8 3,2 16 9 30 16 WSW 1016,5 14 0 0,4
19.01.2021 00:00:00 1,9 1,2 0,2 0,1 0,8 3,2 16 9 29 15 WSW 1016,9 16 0 0,1
18.01.2021 23:00:00 1,8 1,3 0,1 0,1 0,8 3,2 14 8 30 16 WSW 1016,9 14 0 0,3
18.01.2021 22:00:00 1,6 1,2 0,1 0,1 0,8 3,2 15 8 26 14 WSW 1017,2 8 0 0,4
18.01.2021 21:00:00 1,5 1,1 0,1 0,1 0,8 3,2 14 8 23 12 SW 1017,6 12 0 0,2
18.01.2021 20:00:00 1,4 1,0 0,1 0,1 0,8 3,2 15 8 23 13 SW 1017,7 9 0 0,5
18.01.2021 19:00:00 1,7 0,9 0,0 0,1 0,8 3,2 13 7 21 11 SW 1018,0 11 0 0,3
18.01.2021 18:00:00 1,6 0,8 0,0 0,1 0,8 3,2 10 5 17 9 SW 1018,2 20 0 0,0
18.01.2021 17:00:00 1,0 0,6 0,0 0,1 0,8 3,2 8 4 12 6 SW 1018,6 7 0 0,0
18.01.2021 16:00:00 0,6 0,0 0,1 0,1 0,8 3,2 7 4 12 7 SW 1018,9 4,5 0 0,0
18.01.2021 15:00:00 -0,1 -0,4 0,1 0,1 0,8 3,2 5 3 9 5 SW 1019,3 2,7 0 0,0
18.01.2021 14:00:00 -0,7 -1,7 0,1 0,1 0,8 3,2 4 2 8 4 SSW 1019,5 6 0 0,0
18.01.2021 13:00:00 -1,3 -2,6 0,1 0,1 0,8 3,2 5 3 10 5 SW 1020,0 3,1 0 0,0
18.01.2021 12:00:00 -1,7 -3,7 0,0 0,1 0,8 3,2 4 2 9 5 S 1020,4 6 0 0,0
18.01.2021 11:00:00 -2,7 -4,6 -0,6 0,0 0,8 3,2 3 2 8 4 S 1020,8 6 0 0,0
18.01.2021 10:00:00 -4,0 -5,7 -1,5 0,0 0,8 3,2 2 1 6 4 SSE 1021,1 0,2 0 0,0
18.01.2021 09:00:00 -5,3 -6,5 -2,4 0,0 0,8 3,2 2 1 6 4 S 1021,1 11 0 0,0
18.01.2021 08:00:00 -6,1 -7,4 -3,1 0,0 0,8 3,2 4 2 6 4 E 1021,0 12 0 0,0
18.01.2021 07:00:00 -7,1 -8,2 -4,2 0,0 0,8 3,2 4 2 8 4 ESE 1021,2 11 0 0,0
18.01.2021 06:00:00 -8,1 -9,0 -6,2 0,1 0,8 3,2 5 3 9 5 E 1021,1 10 0 0,0
18.01.2021 05:00:00 -7,9 -8,7 -6,3 0,1 0,8 3,2 5 3 9 5 E 1021,5 10 0 0,0
18.01.2021 04:00:00 -7,7 -8,5 -6,3 0,1 0,8 3,2 3 2 9 5 ESE 1021,7 9 0 0,0
18.01.2021 03:00:00 -6,5 -7,4 -5,4 0,1 0,8 3,2 5 3 8 4 ESE 1021,6 10 0 0,0
18.01.2021 02:00:00 -6,9 -7,5 -6,5 0,1 0,8 3,2 4 2 9 5 ESE 1022,2 8 0 0,0
18.01.2021 01:00:00 -6,6 -7,3 -6,1 0,1 0,8 3,2 4 2 9 5 SE 1022,4 10 0 0,0
18.01.2021 00:00:00 -5,2 -6,6 -3,9 0,1 0,8 3,2 6 4 12 6 ESE 1022,7 14 0 0,0
17.01.2021 23:00:00 -4,4 -6,1 -3,2 0,1 0,8 3,2 8 4 11 6 ESE 1022,8 13 0 0,0
17.01.2021 22:00:00 -4,3 -6,2 -3,2 0,1 0,8 3,2 6 3 13 7 E 1022,9 13 0 0,0
17.01.2021 21:00:00 -4,0 -6,1 -2,7 0,1 0,8 3,2 5 3 10 6 E 1023,0 12 0 0,0
17.01.2021 20:00:00 -3,7 -6,1 -2,6 0,1 0,8 3,2 5 3 9 5 E 1022,9 14 0 0,0
17.01.2021 19:00:00 -3,6 -6,4 -2,5 0,1 0,8 3,2 6 3 13 7 E 1022,7 14 0 0,0
17.01.2021 18:00:00 -3,3 -6,0 -2,8 0,1 0,8 3,2 8 4 13 7 E 1022,1 18 0 0,0
17.01.2021 17:00:00 -3,0 -5,9 -2,5 0,1 0,8 3,2 5 3 14 8 ENE 1021,5 19 0 0,0
17.01.2021 16:00:00 -2,8 -5,8 -2,5 0,1 0,8 3,2 9 5 14 8 ENE 1021,3 20 0 0,0
17.01.2021 15:00:00 -2,4 -5,5 -2,0 0,1 0,8 3,2 9 5 15 8 ENE 1020,8 19 0 0,0
17.01.2021 14:00:00 -1,6 -4,9 -0,6 0,1 0,8 3,2 2 1 7 4 W 1020,6 42 0 0,0
17.01.2021 13:00:00 -1,8 -5,0 -0,7 0,1 0,8 3,2 5 3 9 5 NW 1020,5 44 0 0,0
17.01.2021 12:00:00 -1,8 -4,9 -0,7 0,1 0,8 3,2 0 0 11 6 N 1020,2 37 0 0,0
17.01.2021 11:00:00 -1,7 -5,1 -0,4 0,1 0,8 3,2 3 2 10 5 NW 1020,0 41 0 0,0
17.01.2021 10:00:00 -2,2 -5,5 -0,8 0,1 0,8 3,2 4 2 8 4 W 1019,5 41 0 0,0
17.01.2021 09:00:00 -2,7 -5,5 -1,4 0,1 0,8 3,2 3 2 8 4 W 1019,1 42 0 0,0
17.01.2021 08:00:00 -2,9 -5,3 -1,6 0,1 0,8 3,2 4 2 9 5 W 1018,8 34 0 0,0
17.01.2021 07:00:00 -2,8 -5,8 -1,8 0,1 0,8 3,2 5 3 11 6 W 1018,5 25 0 0,0
17.01.2021 06:00:00 -2,7 -5,8 -1,7 0,1 0,8 3,2 4 2 13 7 W 1018,4 34 0 0,0
17.01.2021 05:00:00 -2,7 -5,7 -1,7 0,1 0,8 3,2 5 3 13 7 W 1018,0 43 0 0,0
17.01.2021 04:00:00 -2,6 -5,8 -1,7 0,1 0,8 3,2 5 3 17 9 WNW 1018,1 41 0 0,0
17.01.2021 03:00:00 -2,5 -5,8 -2,2 0,1 0,8 3,2 8 4 19 10 W 1018,2 50 0 0,0
17.01.2021 02:00:00 -2,8 -5,7 -2,5 0,1 0,8 3,2 9 5 15 8 W 1018,7 41 0 0,0
17.01.2021 01:00:00 -2,9 -6,1 -2,5 0,1 0,8 3,2 9 5 16 9 W 1019,1 44 0 0,0
17.01.2021 00:00:00 -2,4 -5,6 -1,7 0,1 0,8 3,2 5 3 10 5 W 1019,8 43 0 0,0
16.01.2021 23:00:00 -2,3 -5,7 -1,8 0,1 0,8 3,2 5 3 16 9 W 1019,8 54 0 0,0
16.01.2021 22:00:00 -2,3 -5,8 -1,9 0,1 0,8 3,2 8 5 24 13 W 1019,8 43 0 0,0
16.01.2021 21:00:00 -2,3 -5,6 -2,1 0,1 0,8 3,2 9 5 22 12 W 1019,8 39 0 0,0
16.01.2021 20:00:00 -2,3 -5,6 -2,1 0,1 0,8 3,2 10 5 21 12 W 1020,0 42 0 0,0
16.01.2021 19:00:00 -2,3 -5,5 -2,1 0,1 0,8 3,2 10 5 23 12 W 1020,3 38 0 0,0
16.01.2021 18:00:00 -2,2 -5,3 -2,2 0,1 0,8 3,2 11 6 28 15 W 1020,8 36 0 0,0
16.01.2021 17:00:00 -2,1 -5,5 -2,2 0,1 0,8 3,2 13 7 25 14 W 1020,9 40 0 0,0
16.01.2021 16:00:00 -1,9 -5,5 -1,6 0,1 0,8 3,2 11 6 24 13 W 1021,3 38 0 0,0
16.01.2021 15:00:00 -1,9 -5,4 -1,5 0,1 0,8 3,3 12 7 29 16 W 1021,5 42 0 0,0
16.01.2021 14:00:00 -2,0 -5,0 -1,0 0,1 0,8 3,3 13 7 31 17 W 1021,7 31 0 0,0
16.01.2021 13:00:00 -2,2 -4,8 -1,0 0,1 0,8 3,3 13 7 28 15 W 1022,3 15 0 0,0
16.01.2021 12:00:00 -2,3 -4,8 -0,7 0,1 0,8 3,3 9 5 21 11 W 1023,0 14 0 0,0
16.01.2021 11:00:00 -2,9 -5,0 -1,2 0,1 0,8 3,3 12 7 21 11 W 1023,7 11 0 0,0
16.01.2021 10:00:00 -3,3 -5,2 -1,6 0,1 0,8 3,3 11 6 20 11 W 1024,0 22 0 0,0
16.01.2021 09:00:00 -3,6 -5,8 -2,0 0,1 0,8 3,3 10 5 20 11 W 1024,5 8 0 0,0
16.01.2021 08:00:00 -3,7 -6,5 -2,8 0,1 0,8 3,3 14 8 22 12 WSW 1024,7 11 0 0,0
16.01.2021 07:00:00 -3,5 -7,5 -2,8 0,1 0,8 3,3 10 5 18 10 W 1025,0 32 0 0,0
16.01.2021 06:00:00 -3,6 -7,1 -2,5 0,1 0,8 3,3 7 4 18 10 W 1025,2 58 0 0,0
16.01.2021 05:00:00 -3,5 -7,0 -2,6 0,1 0,8 3,3 9 5 19 11 WNW 1025,5 60 0 0,0
16.01.2021 04:00:00 -3,4 -6,6 -2,5 0,1 0,8 3,3 8 4 16 9 W 1025,7 46 0 0,0
16.01.2021 03:00:00 -3,5 -6,8 -2,3 0,1 0,8 3,3 6 4 14 7 WNW 1025,8 61 0 0,0
16.01.2021 02:00:00 -3,3 -6,3 -2,1 0,1 0,8 3,3 6 3 13 7 NW 1025,8 56 0 0,0
16.01.2021 01:00:00 -3,4 -6,6 -2,2 0,1 0,8 3,3 7 4 15 8 NW 1025,7 65 0 0,0
16.01.2021 00:00:00 -3,4 -6,8 -2,4 0,1 0,8 3,3 6 3 16 8 NW 1025,8 60 0 0,0
15.01.2021 23:00:00 -3,3 -7,1 -2,9 0,1 0,8 3,3 9 5 22 12 NW 1025,6 62 0 0,0
15.01.2021 22:00:00 -2,8 -6,3 -2,6 0,1 0,8 3,3 10 6 29 16 NNW 1025,4 61 0 0,0
15.01.2021 21:00:00 -2,4 -5,3 -2,3 0,1 0,8 3,3 11 6 26 14 NNW 1025,0 57 0 0,0
15.01.2021 20:00:00 -1,9 -4,8 -1,6 0,1 0,8 3,3 13 7 27 14 NNW 1024,8 60 0 0,2
15.01.2021 19:00:00 -1,0 -2,0 -0,5 0,1 0,8 3,3 8 4 18 10 NW 1024,2 30 0 0,0
15.01.2021 18:00:00 -0,8 -1,7 -0,2 0,1 0,8 3,3 10 5 19 10 NNW 1023,8 18 0 0,0
15.01.2021 17:00:00 -0,9 -1,5 -0,1 0,1 0,8 3,3 8 4 19 10 NW 1023,2 15 0 0,2
15.01.2021 16:00:00 -0,7 -2,1 0,0 0,1 0,8 3,3 9 5 21 11 NW 1022,8 22 0 0,0
15.01.2021 15:00:00 -0,5 -2,4 0,0 0,1 0,8 3,3 9 5 23 12 NW 1022,4 26 0 0,0
15.01.2021 14:00:00 -0,3 -1,8 0,1 0,1 0,8 3,3 8 4 20 11 NW 1022,2 32 0 0,0
15.01.2021 13:00:00 -0,2 -1,8 0,1 0,1 0,8 3,3 9 5 21 11 NW 1022,2 44 4 0,0
15.01.2021 12:00:00 -0,2 -1,2 0,1 0,1 0,8 3,3 9 5 18 10 NW 1022,2 7 0 0,1
15.01.2021 11:00:00 -0,2 -0,9 0,0 0,1 0,8 3,3 7 4 19 10 NNW 1022,4 4,9 0 0,2
15.01.2021 10:00:00 -0,1 -0,6 0,0 0,1 0,8 3,3 7 4 16 9 NNW 1021,9 1,3 0 0,4
15.01.2021 09:00:00 0,1 -0,5 0,0 0,1 0,8 3,3 7 4 15 8 NW 1021,5 3,3 0 0,2
15.01.2021 08:00:00 0,2 -0,4 0,0 0,1 0,8 3,3 6 3 13 7 NNW 1021,0 8 0 0,0
15.01.2021 07:00:00 0,4 -0,3 0,0 0,1 0,8 3,3 6 3 15 8 NNW 1020,5 19 0 0,0
15.01.2021 06:00:00 0,6 -0,3 0,0 0,1 0,8 3,3 8 5 16 9 NNW 1020,0 19 0 0,0
15.01.2021 05:00:00 0,5 0,1 0,0 0,1 0,8 3,3 8 4 15 8 NNW 1019,9 16 0 0,0
15.01.2021 04:00:00 0,6 0,1 0,0 0,1 0,7 3,3 8 4 18 10 NNW 1019,8 19 0 0,0
15.01.2021 03:00:00 0,5 0,2 0,0 0,1 0,7 3,3 7 4 15 8 NW 1019,9 12 0 0,0
15.01.2021 02:00:00 0,5 0,2 0,0 0,1 0,7 3,3 6 4 11 6 WNW 1019,4 9 0 0,0
15.01.2021 01:00:00 0,6 0,1 0,0 0,1 0,7 3,3 7 4 13 7 NW 1019,4 13 0 0,0
15.01.2021 00:00:00 0,6 0,2 0,0 0,1 0,7 3,3 5 3 10 5 WNW 1019,6 12 0 0,0
14.01.2021 23:00:00 0,6 0,2 0,0 0,1 0,7 3,3 4 2 10 6 W 1019,5 10 0 0,0
14.01.2021 22:00:00 0,7 0,4 0,0 0,1 0,7 3,3 6 3 12 6 NW 1019,5 12 0 0,0
14.01.2021 21:00:00 0,8 0,4 0,0 0,1 0,7 3,3 7 4 13 7 NNW 1019,2 13 0 0,0
14.01.2021 20:00:00 0,7 0,1 0,0 0,1 0,7 3,4 6 4 16 9 NW 1018,9 19 0 0,0
14.01.2021 19:00:00 0,9 0,3 0,0 0,1 0,7 3,4 9 5 19 10 NW 1018,5 17 0 0,0
14.01.2021 18:00:00 0,8 0,3 0,0 0,1 0,7 3,4 8 4 24 13 NW 1018,0 16 0 0,0
14.01.2021 17:00:00 0,9 0,4 0,0 0,1 0,7 3,4 8 4 27 15 NW 1017,4 17 0 0,0
14.01.2021 16:00:00 1,2 0,0 0,0 0,1 0,7 3,4 11 6 24 13 WNW 1016,8 27 0 0,0
14.01.2021 15:00:00 1,2 -0,2 0,0 0,1 0,7 3,4 9 5 23 12 WNW 1016,4 45 0 0,0
14.01.2021 14:00:00 1,1 -0,2 0,0 0,1 0,7 3,4 8 5 15 8 WNW 1016,1 32 0 0,0
14.01.2021 13:00:00 1,0 -0,9 0,0 0,1 0,7 3,4 10 5 18 10 WNW 1015,9 30 9 0,0
14.01.2021 12:00:00 0,8 -0,6 0,0 0,1 0,7 3,4 10 5 19 11 NW 1015,7 26 1 0,0
14.01.2021 11:00:00 0,7 -0,3 0,0 0,1 0,7 3,4 8 5 21 12 NNW 1014,7 19 1 0,0
14.01.2021 10:00:00 0,6 -0,2 0,0 0,1 0,7 3,4 9 5 19 10 NNW 1013,3 19 0 0,0
14.01.2021 09:00:00 0,4 -0,1 -0,1 0,1 0,7 3,4 9 5 20 11 NNW 1011,7 19 0 0,0
14.01.2021 08:00:00 -0,1 -0,6 -0,3 0,1 0,7 3,4 9 5 28 15 NNW 1010,1 26 0 0,0
14.01.2021 07:00:00 -0,3 -0,8 -0,3 0,1 0,7 3,4 11 6 24 13 NNW 1008,5 35 0 0,0
14.01.2021 06:00:00 -0,5 -0,9 -0,5 0,1 0,7 3,4 10 5 20 11 N 1006,8 47 0 0,0
14.01.2021 05:00:00 -0,7 -0,9 -0,5 0,1 0,7 3,4 7 4 22 12 WNW 1004,7 3,0 0 0,3
14.01.2021 04:00:00 -0,8 -1,0 -0,6 0,1 0,7 3,4 14 7 26 14 WSW 1003,8 1,6 0 1,0
14.01.2021 03:00:00 -0,9 -1,5 -0,8 0,1 0,7 3,4 16 8 29 16 W 1003,5 1,2 0 0,4
14.01.2021 02:00:00 -1,0 -1,7 -1,1 0,1 0,7 3,4 18 10 32 18 WSW 1003,4 2,0 0 0,4
14.01.2021 01:00:00 -0,3 -2,2 -1,3 0,1 0,7 3,4 16 9 33 18 W 1003,4 63 0 0,3
14.01.2021 00:00:00 -0,1 -1,1 -0,5 0,1 0,7 3,4 17 9 34 19 W 1003,3 11 0 0,1
13.01.2021 23:00:00 0,2 -0,2 0,0 0,1 0,7 3,4 16 8 30 16 W 1003,1 1,5 0 0,1
13.01.2021 22:00:00 0,5 -0,3 0,0 0,1 0,7 3,4 16 9 34 18 W 1002,9 60 0 0,0
13.01.2021 21:00:00 0,2 -0,1 0,0 0,1 0,7 3,4 18 10 41 22 W 1002,9 16 0 2,2
13.01.2021 20:00:00 1,2 0,0 0,5 0,1 0,7 3,4 29 16 48 26 SW 1002,4 16 0 0,1
13.01.2021 19:00:00 2,3 -0,6 1,5 0,1 0,7 3,4 29 16 45 25 SW 1003,5 26 0 0,0
13.01.2021 18:00:00 2,6 -0,4 1,9 0,1 0,7 3,4 22 12 38 21 SW 1004,9 43 0 0,0
13.01.2021 17:00:00 2,5 -0,2 1,9 0,1 0,7 3,4 21 11 37 20 SW 1006,0 50 0 0,0
13.01.2021 16:00:00 2,4 -0,3 1,7 0,1 0,7 3,4 21 12 36 19 WSW 1006,9 13 0 0,0
13.01.2021 15:00:00 2,5 -0,3 2,0 0,1 0,7 3,4 19 10 37 20 WSW 1007,4 53 0 0,0
13.01.2021 14:00:00 2,5 -0,2 2,1 0,0 0,7 3,5 22 12 36 19 WSW 1007,9 45 0 0,0
13.01.2021 13:00:00 2,4 -0,1 2,1 0,0 0,7 3,5 22 12 35 19 WSW 1008,3 52 0 0,0
13.01.2021 12:00:00 2,1 -0,4 1,8 0,0 0,7 3,5 20 11 34 19 WSW 1009,0 38 0 0,0
13.01.2021 11:00:00 2,1 -0,9 1,8 0,0 0,7 3,5 19 10 35 19 W 1009,4 39 0 0,0
13.01.2021 10:00:00 2,0 -0,9 1,6 0,0 0,7 3,5 20 11 34 18 W 1009,5 43 0 0,0
13.01.2021 09:00:00 1,3 -0,9 0,6 0,0 0,7 3,5 18 10 29 16 WSW 1009,5 43 0 0,0
13.01.2021 08:00:00 1,4 -1,0 0,8 0,0 0,7 3,5 16 9 36 20 WSW 1009,4 38 0 0,0
13.01.2021 07:00:00 1,4 -0,7 1,0 0,0 0,7 3,5 16 9 30 16 W 1009,2 35 0 0,0
13.01.2021 06:00:00 1,1 -0,5 0,6 0,0 0,7 3,5 17 9 32 18 W 1009,2 15 0 0,0

tt = temperature
td = dewpoint
tt 5cm = temperature 5cm
tt -5cm = temperature -5cm
tt -20cm = temperature -20cm
tt -100cm = temperature -100cm
ff = wind speed
fx = gusts
dd = wind direction
ppp = reduced air pressure
vv = visibility
sd = sunshine duration
rr = precipitation

Next stations